Preview of NWS' New Version of Forecast
This preview is not operational and should not be used for support decisions.

Regional Weather Roundup (RWR)

Issued by Gray - Portland, ME (GYX)

                            
000
ASUS41 KGYX 251910
RWRGYX
WEATHER ROUNDUP FOR MAINE AND NEW HAMPSHIRE
NATIONAL WEATHER SERVICE GRAY ME
300 PM EDT TUE JUN 25 2019

MEZ002-005-006-010-012-015-018-020-021-024-026-027-029-252000-
MAINE
  
CITY           SKY/WX    TMP DP  RH WIND       PRES   REMARKS
PORTLAND       LGT RAIN  60  57  89 E10       29.94F                  
SANFORD        LGT RAIN  62  61  96 E8        29.92F FOG              
BAR HARBOR     FAIR      67  46  47 S14       30.00R                  
WISCASSET      LGT RAIN  62  57  83 SE5       29.97S                  
ROCKLAND       FAIR      59  54  83 E12       29.98S                  
FRYEBURG       LGT RAIN  65  61  87 E6        29.93S                  
LEWISTONAUBURN LGT RAIN  64  60  87 SE8       29.95R                  
AUGUSTA        LGT RAIN  67  56  67 SE12      29.94F                  
WATERVILLE     FAIR      69  52  54 VRB3      29.93R                  
BANGOR         PTSUNNY   71  47  42 S10       29.96S                  
GREENVILLE       N/A     68  47  46 SE10G17   29.93S                  
MILLINOCKET    FAIR      76  50  40 VRB6      29.94S                  
HOULTON        FAIR      75  45  34 S8        29.93F                  
PRESQUE ISLE   FAIR      74  48  39 S12       29.93S                  
FRENCHVILLE    FAIR      74  43  32 SE10      29.92F                  
CARIBOU        FAIR      75  46  35 SE13G18   29.92S                  
$$

NHZ002-005-008-009-011-012-014-252000-
NEW HAMPSHIRE
  
CITY           SKY/WX    TMP DP  RH WIND       PRES   REMARKS
PORTSMOUTH     LGT RAIN  62  61  96 E7        29.89F FOG              
ROCHESTER      CLOUDY    63  60  90 E6        29.90F                  
NASHUA         CLOUDY    69  69 100 SE8       29.87F FOG              
MANCHESTER     LGT RAIN  68  66  93 SE8       29.86F                  
CONCORD        CLOUDY    65  63  93 SE5       29.88S                  
LACONIA        LGT RAIN  64  62  93 NE10      29.89S                  
PLYMOUTH       RAIN      62  60  93 CALM      29.90S                  
BERLIN         LGT RAIN  64  58  80 S7        29.90F                  
WHITEFIELD     CLOUDY    66  58  75 VRB5      29.86S                  
JAFFREY        CLOUDY    67  63  87 VRB3      29.89S                  
KEENE          LGT RAIN  68  66  93 VRB5      29.84F                  
LEBANON        LGT RAIN  66  61  84 CALM      29.85F                  
MT WASHINGTON  LGT RAIN  50  50 100 S31G46      N/A  VSB 0            
$$

VTZ005-007-008-252000-
VERMONT
  
CITY           SKY/WX    TMP DP  RH WIND       PRES   REMARKS
ST JOHNSBURY     N/A     62  62 100 MISG      29.84S                  
MONTPELIER     RAIN      62  61  96 SW5       29.90  FOG              
BURLINGTON     PTSUNNY   71  67  87 E3        29.79S                  
$$

MAZ007-012-024-CTZ003-RIZ002-NYZ038-NYZ072-252000-
SOUTHERN NEW ENGLAND AND NY
  
CITY           SKY/WX    TMP DP  RH WIND       PRES   REMARKS
BOSTON         LGT RAIN  72  68  87 S12       29.89F FOG              
WORCESTER      CLOUDY    68  68 100 S10       29.89S                  
NANTUCKET      LGT RAIN  63  62  97 S12       29.95S FOG              
PROVIDENCE     LGT RAIN  70  69  97 S13       29.90S                  
HARTFORD       LGT RAIN  73  69  87 S10       29.83S                  
ALBANY         PTSUNNY   83  68  60 N5        29.81F                  
NEW YORK CITY  PTSUNNY   79  70  74 CALM      29.81S                  
$$

ANZ081-ANZ082-ANZ150-NHZ014-MEZ023>029-252000-
COASTAL MARINE OBSERVATIONS
  
STATION/POSITION TIME  TEMP    WIND        PRES    WAVE
                       AIR SEA DIR/SP/G            HT/PER
                 (UTC) (F)     (DEG/KT/KT) (MB)    (FT/S)
JEFFREYS LEDGE   1838      59                N/A     2/ 4
CASHES LEDGE BUO 1850   58 57  160/ 12/ 14 1014.8F   2/ 4
GEORGES BANK BUO 1850   60 56  140/  8/  8 1018.0R   2/ 6
$$

.............KEY..............
   WCI - WIND CHILL
   TC  - TEMPERATURE IN CELSIUS
   VSB - VISIBILITY IN MILES
   HX  - HEAT INDEX
   FAIR- INDICATES FEW OR NO CLOUDS BELOW 12,000 FT, WITH NO 
         SIGNIFICANT WEATHER AND/OR OBSTRUCTIONS TO VISIBILITY.